Weather in Bolshiye Klyuchi

Russia / Republic of Tatarstan     55°58′58″N   48°48′13″E
temp.,
°C
wind,
m/s
gust,
m/s
humid.,
%
clouds,
%
prec.,
mm/h
press.,
hPa
HPBL,
m
19 september, sun
sun1900:00+1nw36875 0.0 1024121
03:00−1nw36895 0.0 102598
06:00−1nw25885 0.0 1025114
09:00+5nw456072 0.0 1025698
12:00+8nw4547100 0.0 10251235
15:00+10nnw45445 0.0 10241437
18:00+5n226250 0.0 102515
21:00+2ne497453 0.0 1026211
20 september, mon
mon2000:000ene3687100 0.0 1027103
03:000ne2582100 0.0 1028116
06:000ene3679100 0.0 1028153
09:00+5e4555100 0.0 1028663
12:00+8e4443100 0.0 10271042
15:00+8e4541100 0.0 10271113
18:00+5e365399 0.0 1027115
21:00+4e3760100 0.0 1027132
21 september, tue
tue2100:00+4e41160100 0.0 1027281
03:00+4e51060100 0.0 1026372
06:00+4e51066100 0.0 1026403
09:00+6ese686098 0.0 1025546
12:00+10ese6744100 0.0 1023952
15:00+9ese5846100 0.0 1022922
18:00+9ese41050100 0.0 1021707
21:00+8e51051100 0.0 1020584
22 september, wed
wed2200:00+8e51057100 0.0 1019485
03:00+8e61264100 0.0 1018425
06:00+8e6126599 0.0 1018456
09:00+10e7136149 0.0 1017603
12:00+12ese61266100 0.1 1016899
15:00+10ese71378100 0.8 1016809
18:00+8ese61393100 2.1 1016647
21:00+8ese61293100 5.1 1017652
23 september, thu
thu2300:00+9se51192100 1.1 1017544
03:00+9se4987100 1.1 1017350
06:00+7e379577 0.0 1017178
09:00+11ese4772100 0.0 1017441
12:00+12se4868100 0.0 1016541
15:00+13se61162100 0.4 1016765
18:00+10se41377100 1.1 1016414
21:00+9se51290100 2.6 1016508